Temperature
17 17 17 17 16 16 16 16 16 15 15 15 15 15 15 15 14 14 14 14 14 14 14 14 14 14 14 13 13 13 13 13 13 13 12 12 12 12
17 17 17 17 16 16 16 16 16 16 15 15 15 15 15 14 14 14 14 14 14 14 13 13 13 13 13 13 13 13 13 13 12 12 12 12 12 12
17 17 17 17 16 16 16 16 16 16 15 15 15 15 14 14 14 14 13 13 13 13 13 13 13 13 13 13 13 12 12 12 12 12 12 12 12 11
17 17 17 16 16 16 16 16 15 15 15 15 15 14 14 14 14 14 13 13 13 13 13 13 13 13 13 12 12 12 12 12 12 12 11 11 11 11
17 17 17 16 16 16 16 16 15 15 15 15 15 14 14 14 14 14 13 13 13 13 13 13 13 12 12 12 12 12 12 12 11 11 11 11 11 11
17 17 17 16 16 16 16 16 15 15 15 15 14 14 14 14 14 13 13 13 13 13 13 13 13 12 12 12 12 12 12 11 11 11 11 11 11 11
17 17 16 16 16 16 15 15 15 15 15 14 14 14 14 14 13 13 13 13 13 13 13 12 12 12 12 12 12 12 11 11 11 11 11 11 11 10
17 16 16 16 16 16 15 15 15 15 15 14 14 14 14 14 13 13 13 13 12 13 12 12 12 12 12 12 12 12 11 11 11 11 11 11 10 10
16 16 16 16 16 15 15 15 15 15 14 14 14 14 14 14 13 13 13 13 12 12 12 12 12 12 12 12 12 11 11 11 11 11 11 11 10 10
16 16 16 16 15 15 15 15 15 14 14 14 14 14 13 13 13 13 13 12 12 12 12 12 12 12 12 12 11 11 11 11 11 11 11 10 10 10
16 16 16 15 15 15 15 15 14 14 14 14 14 13 13 13 13 12 12 12 12 12 12 11 12 12 12 12 11 11 11 11 11 11 10 10 10 10
15 15 15 15 15 15 14 14 14 14 14 14 14 13 13 13 13 12 12 12 12 11 12 11 11 11 11 11 11 11 11 11 11 11 10 10 10 10
15 15 15 15 15 14 14 14 14 14 14 13 13 13 13 13 12 12 12 11 11 11 11 11 11 11 11 11 11 11 11 11 11 11 10 10 10 10
15 15 15 14 14 14 14 14 14 13 13 13 13 13 13 12 12 12 12 11 11 11 11 11 11 11 11 10 10 11 11 11 10 10 10 10 10 10
14 14 14 14 14 14 14 13 13 13 13 13 13 13 12 12 12 12 12 11 11 11 11 11 11 11 10 10 10 10 10 10 10 10 10 10 10 10
14 14 14 14 13 13 13 13 13 13 13 12 12 12 12 12 12 11 11 11 11 11 11 11 10 10 10 10 10 10 10 10 10 10 10 10 10 9
13 13 13 13 13 13 13 13 13 13 12 12 12 12 12 12 11 11 11 11 11 11 11 11 10 10 10 10 10 10 10 10 10 9 9 9 9 9
13 13 13 13 13 13 13 13 13 12 12 12 12 11 11 11 11 11 11 10 10 10 10 10 10 10 10 10 10 10 10 10 9 9 9 9 9 9
13 13 13 12 12 12 12 12 12 12 12 12 11 11 11 11 10 10 10 10 10 10 10 10 9 9 9 9 10 10 9 10 9 9 9 9 9 9
13 13 13 12 12 12 12 12 12 12 12 11 11 11 11 10 10 10 10 10 9 9 9 9 9 9 9 9 9 9 9 9 9 9 9 9 9 9
13 13 12 12 12 12 12 12 12 11 11 11 11 11 10 10 10 9 9 9 9 9 9 9 9 9 9 9 9 9 9 9 9 9 8 8 8 8
12 12 12 12 12 11 11 11 11 11 11 11 10 10 10 10 10 9 9 9 9 9 9 9 9 9 8 8 8 8 8 8 8 8 8 8 8 8
12 12 12 12 11 11 11 11 11 11 11 11 10 10 10 9 9 9 9 9 9 9 8 8 8 8 8 8 8 8 8 8 8 8 8 8 8 8
Wind_Speed
2 2 2 2 2 3 3 3 3 2 2 2 1 0 0 1 1 1 1 2 3 3 4 4 4 4 4 5 6 6 5 5 5 4 4 4 4 3
1 2 1 1 2 2 3 3 2 3 2 1 2 1 1 1 1 1 1 1 2 3 4 4 4 4 4 5 5 5 5 5 5 5 4 4 4 4
1 2 1 1 2 2 2 3 2 2 2 1 0 0 1 1 1 1 1 1 1 2 2 2 3 3 4 4 4 4 4 4 4 4 4 4 3 3
1 2 1 1 2 2 2 3 2 2 2 1 0 1 1 1 1 1 1 1 1 0 0 1 1 2 3 3 3 3 4 3 3 3 3 3 2 2
2 2 2 3 2 2 2 2 2 2 1 2 1 1 0 1 1 0 1 1 1 1 2 2 2 1 2 2 2 2 2 2 2 2 2 2 2 2
2 2 2 3 3 3 3 3 3 3 2 2 1 1 1 0 1 1 1 1 2 1 2 2 2 2 2 3 3 3 3 3 3 3 3 3 3 3
2 2 2 3 4 4 3 4 4 3 3 2 1 1 1 1 2 2 2 1 2 2 1 2 2 2 3 4 5 5 5 5 5 4 4 4 4 4
2 1 1 2 3 4 5 5 6 5 4 3 3 3 3 3 3 3 2 1 2 2 2 3 3 4 4 5 6 7 7 7 7 6 6 6 6 6
2 2 1 1 2 2 3 4 5 5 6 5 4 5 4 5 4 4 4 4 4 2 2 3 3 4 5 6 8 9 9 8 8 8 7 7 7 7
3 3 2 1 2 2 2 2 3 4 5 5 5 6 5 5 5 5 5 4 2 2 3 3 3 3 4 5 8 10 10 10 9 9 9 8 9 9
2 2 2 2 3 3 3 2 2 3 3 5 6 6 6 6 5 3 2 2 3 3 3 3 3 3 3 4 6 9 10 10 10 9 9 9 10 9
1 1 2 2 2 4 3 3 3 4 2 2 2 3 3 3 6 6 5 4 3 3 3 4 3 2 3 3 4 5 7 9 10 10 10 10 9 7
2 1 1 2 3 4 4 4 5 4 3 2 2 2 2 2 3 5 6 5 5 5 3 4 3 3 3 2 2 3 4 5 6 7 9 10 10 9
3 2 2 3 3 4 3 4 4 3 2 2 2 3 3 3 4 4 6 7 8 7 6 5 4 4 3 3 3 2 3 4 5 4 5 7 9 11
2 3 2 3 3 2 3 3 3 2 2 2 3 4 4 4 3 3 4 4 5 7 6 7 5 4 4 5 4 3 2 3 4 4 4 4 5 5
2 1 1 1 1 2 1 1 2 3 3 3 4 3 2 2 3 2 3 3 3 4 4 6 7 6 5 6 5 5 4 3 3 4 4 4 5 6
1 0 0 0 1 2 2 2 2 2 3 3 3 3 3 3 3 3 2 2 3 4 4 3 4 6 6 5 5 6 5 5 4 4 4 4 4 6
3 1 2 2 3 3 3 3 3 3 4 3 4 4 4 4 4 3 3 3 4 5 5 3 2 2 2 4 7 7 6 6 5 5 5 4 5 5
2 3 3 4 4 4 4 4 4 4 4 4 4 4 4 4 4 4 4 4 4 5 5 4 3 4 5 6 4 7 7 5 5 5 5 5 6 5
3 3 4 4 4 4 4 4 4 4 3 3 4 4 4 4 4 5 5 5 5 5 5 5 5 5 7 7 5 4 7 6 5 5 5 4 4 4
3 4 4 4 4 4 4 4 4 4 3 3 4 4 4 4 4 5 5 6 6 5 6 6 6 7 5 3 4 4 4 7 8 5 5 4 4 3
3 4 3 4 4 4 4 4 4 4 4 4 4 4 4 4 5 5 5 5 5 6 7 6 4 3 4 5 7 6 5 3 5 7 7 6 4 4
4 4 4 4 4 3 4 4 5 4 4 4 4 4 4 4 4 4 4 5 5 5 5 5 3 3 4 5 5 5 6 5 3 3 4 6 8 8
Wind_Direction
189 186 191 193 184 185 177 173 167 192 233 241 239 256 107 76 56 76 60 60 60 56 55 55 58 66 74 79 81 83 86 86 91 98 97 95 99 107
182 170 174 182 170 170 173 178 179 179 207 221 219 210 165 110 101 100 94 95 76 68 63 64 69 79 86 89 87 87 87 87 92 97 99 99 102 108
152 150 165 160 160 170 167 169 166 161 177 234 186 146 151 163 92 89 91 97 86 79 77 74 82 95 104 106 104 102 98 98 99 98 100 99 99 107
158 144 157 143 145 164 162 163 166 166 166 195 186 173 192 196 182 178 130 164 183 216 189 134 119 111 115 118 122 120 117 117 113 109 114 111 109 113
160 161 169 145 143 145 143 147 161 154 144 159 186 194 202 164 152 205 215 262 249 253 239 228 206 185 158 144 139 138 141 151 155 155 157 158 150 143
159 166 174 173 177 170 164 166 159 145 133 139 153 187 212 183 172 219 276 277 267 271 255 237 226 221 213 206 203 203 207 207 201 196 195 196 188 179
158 171 189 187 181 182 181 177 167 165 160 166 184 191 210 186 214 211 229 270 269 249 237 242 234 234 233 231 226 226 227 224 221 216 213 211 208 204
187 207 213 203 197 193 189 183 177 178 188 191 207 218 232 225 212 202 205 225 264 229 214 250 228 240 240 235 234 230 232 231 229 226 220 216 214 212
197 210 232 239 201 198 186 185 197 198 191 192 205 224 225 217 202 209 216 223 238 223 198 248 237 243 246 240 233 232 233 234 233 230 226 220 217 215
211 207 213 241 221 194 181 192 218 225 219 212 223 232 230 217 206 210 220 232 255 224 194 238 246 249 251 243 235 235 236 234 232 228 226 223 219 218
224 206 204 222 230 193 177 202 243 262 242 231 236 242 237 221 198 181 189 211 254 250 206 225 246 250 251 244 239 234 233 231 230 229 227 224 220 218
253 237 216 222 218 186 190 204 239 260 261 268 265 265 249 223 200 201 203 215 242 247 210 207 223 218 248 241 236 233 232 234 230 228 227 225 218 215
234 251 253 239 236 220 211 221 235 243 249 247 258 269 269 252 233 224 217 216 229 243 217 202 221 216 229 248 250 235 229 232 230 231 230 226 216 207
236 246 247 231 230 231 228 245 242 227 237 243 255 263 263 263 258 247 237 232 234 244 231 203 218 216 221 243 255 247 238 229 224 228 230 226 220 217
237 241 246 234 223 229 247 244 214 210 222 241 253 261 261 264 266 264 256 249 251 251 239 220 222 220 219 234 244 240 244 240 223 225 225 220 218 218
251 261 239 202 208 241 257 226 213 214 220 242 253 267 276 272 266 261 259 259 266 273 254 230 223 218 228 236 237 247 239 230 226 226 224 227 224 221
191 152 358 298 285 280 272 261 239 226 227 240 249 261 267 266 270 264 254 258 260 271 281 265 236 230 232 230 236 241 242 243 234 221 219 231 236 229
157 226 250 249 252 256 259 263 256 246 243 241 245 248 253 258 268 270 259 253 260 268 273 270 254 251 254 252 230 240 244 243 236 218 216 229 243 237
185 235 244 250 256 258 257 255 256 256 247 243 248 253 255 257 261 265 262 259 262 264 267 258 240 235 253 266 249 215 230 243 232 225 224 229 241 240
233 247 254 256 256 257 258 258 260 258 250 248 250 252 251 251 256 262 260 260 264 268 271 263 247 240 246 259 261 248 218 229 232 234 236 237 247 253
244 252 259 262 262 260 259 259 259 256 255 252 253 253 251 250 257 261 262 259 260 264 266 267 263 250 248 246 257 258 245 226 225 230 228 226 237 239
248 251 254 257 257 258 258 256 258 257 255 253 258 256 254 252 257 263 264 262 260 262 267 272 275 256 238 243 254 259 262 254 236 232 229 220 222 226
254 255 255 256 259 260 256 253 252 252 247 246 249 252 252 255 261 265 271 269 268 270 274 278 277 263 256 250 257 261 262 262 253 241 253 246 237 241
Height
1543 1543 1543 1543 1543 1543 1543 1544 1545 1544 1544 1545 1545 1545 1545 1545 1545 1545 1544 1544 1544 1543 1542 1542 1541 1540 1540 1539 1539 1539 1539 1539 1539 1539 1539 1539 1540 1540
1542 1541 1541 1541 1541 1541 1542 1542 1543 1543 1543 1543 1543 1544 1544 1544 1544 1543 1543 1543 1543 1542 1542 1541 1540 1540 1539 1539 1538 1538 1538 1538 1538 1538 1538 1538 1538 1538
1540 1540 1540 1540 1540 1540 1540 1541 1541 1542 1541 1541 1542 1542 1542 1542 1542 1542 1542 1542 1541 1541 1540 1540 1539 1539 1538 1538 1538 1537 1537 1537 1537 1537 1537 1537 1537 1537
1539 1539 1539 1539 1539 1539 1539 1539 1539 1540 1540 1539 1540 1541 1541 1541 1541 1540 1540 1540 1540 1540 1539 1539 1538 1538 1537 1537 1537 1536 1536 1536 1536 1535 1535 1535 1535 1535
1538 1538 1538 1538 1537 1537 1538 1538 1538 1538 1538 1538 1538 1539 1539 1539 1539 1539 1539 1539 1539 1538 1538 1538 1537 1537 1536 1536 1536 1535 1535 1535 1534 1534 1533 1533 1533 1533
1537 1537 1537 1537 1537 1537 1536 1536 1537 1537 1537 1537 1537 1537 1537 1537 1537 1537 1537 1537 1537 1537 1537 1536 1536 1535 1535 1535 1534 1534 1533 1533 1532 1532 1531 1531 1531 1530
1535 1535 1535 1535 1535 1535 1535 1535 1535 1535 1535 1535 1535 1535 1535 1535 1535 1535 1535 1535 1535 1535 1535 1534 1534 1533 1533 1532 1532 1532 1531 1531 1530 1530 1529 1529 1528 1528
1534 1534 1534 1534 1534 1534 1534 1534 1534 1533 1533 1533 1533 1532 1532 1533 1533 1533 1532 1532 1532 1533 1532 1532 1531 1531 1530 1530 1530 1529 1529 1528 1528 1527 1527 1526 1526 1525
1532 1532 1532 1532 1532 1532 1532 1531 1531 1531 1531 1531 1531 1530 1530 1530 1530 1530 1529 1529 1529 1529 1529 1528 1528 1527 1527 1527 1527 1526 1526 1525 1525 1524 1524 1524 1523 1523
1530 1529 1530 1530 1530 1530 1530 1529 1529 1529 1529 1529 1529 1528 1528 1528 1527 1527 1527 1526 1526 1526 1526 1525 1524 1524 1524 1524 1524 1523 1523 1522 1522 1521 1521 1521 1520 1520
1527 1527 1527 1527 1527 1527 1527 1527 1526 1526 1526 1526 1526 1525 1525 1525 1524 1524 1523 1523 1522 1522 1522 1521 1520 1520 1520 1520 1520 1520 1519 1519 1518 1518 1518 1517 1517 1517
1524 1524 1524 1524 1524 1524 1524 1523 1523 1523 1523 1522 1522 1522 1521 1521 1520 1520 1519 1519 1518 1518 1518 1517 1516 1516 1515 1515 1515 1515 1515 1515 1514 1514 1514 1514 1514 1513
1521 1521 1521 1521 1521 1521 1520 1520 1520 1520 1520 1519 1519 1518 1518 1517 1517 1516 1515 1515 1514 1514 1514 1513 1512 1511 1511 1510 1510 1511 1511 1510 1510 1510 1510 1510 1510 1510
1518 1518 1518 1518 1518 1517 1517 1517 1517 1517 1516 1515 1515 1514 1514 1514 1513 1513 1512 1511 1510 1510 1509 1508 1507 1507 1506 1505 1506 1506 1506 1506 1506 1506 1506 1506 1506 1506
1515 1514 1514 1514 1514 1514 1513 1513 1513 1512 1512 1511 1511 1510 1510 1510 1509 1508 1508 1507 1506 1505 1505 1504 1504 1503 1502 1502 1501 1501 1502 1502 1502 1502 1502 1501 1501 1501
1511 1511 1511 1510 1510 1510 1510 1509 1508 1508 1507 1507 1506 1506 1506 1505 1505 1504 1503 1502 1501 1500 1500 1500 1499 1498 1497 1497 1497 1497 1497 1497 1497 1497 1497 1496 1496 1496
1508 1507 1507 1507 1506 1506 1505 1505 1504 1503 1503 1502 1502 1501 1501 1500 1500 1499 1498 1497 1496 1495 1494 1494 1494 1493 1493 1493 1492 1492 1492 1491 1492 1492 1491 1491 1491 1490
1504 1504 1504 1503 1503 1502 1501 1500 1500 1499 1498 1498 1497 1497 1496 1495 1495 1495 1494 1493 1492 1491 1490 1490 1489 1488 1488 1487 1488 1487 1487 1486 1486 1486 1486 1485 1484 1485
1501 1500 1500 1500 1499 1498 1498 1497 1496 1495 1495 1494 1493 1492 1492 1491 1490 1490 1489 1488 1487 1486 1486 1485 1484 1483 1482 1481 1481 1482 1482 1481 1481 1481 1480 1480 1479 1479
1497 1497 1496 1496 1495 1494 1494 1492 1492 1491 1490 1490 1489 1488 1487 1487 1486 1485 1484 1483 1482 1481 1481 1480 1480 1479 1478 1477 1476 1476 1476 1476 1476 1475 1475 1474 1474 1474
1494 1493 1493 1493 1492 1491 1490 1489 1488 1487 1486 1485 1485 1484 1483 1482 1481 1480 1479 1479 1477 1476 1475 1475 1475 1474 1473 1472 1471 1469 1470 1470 1470 1470 1469 1469 1468 1468
1490 1490 1489 1489 1488 1487 1486 1485 1484 1483 1482 1481 1480 1480 1478 1477 1476 1476 1475 1474 1473 1472 1471 1470 1470 1469 1468 1467 1465 1464 1464 1465 1464 1464 1465 1464 1463 1462
1487 1487 1486 1485 1484 1483 1482 1481 1480 1478 1477 1476 1476 1475 1474 1473 1472 1471 1471 1470 1469 1467 1466 1465 1464 1464 1463 1462 1461 1460 1459 1459 1459 1458 1459 1459 1459 1459